Location: Hoover
(45.1124°N, 103.2678°W)
Time: 06:13:12
(UTC+00:00)

X-37B - Visible Passes

Search period start: 25 November 2020 00:00
Search period end: 05 December 2020 00:00
Orbit: 384 x 389 km, 45.0° (Epoch: 12 November)

Date Brightness Start Highest point End Pass type
(mag) Time Alt. Az. Time Alt. Az. Time Alt. Az.
27 Nov 2.7 01:11:46 10° SSW 01:13:19 19° S 01:13:19 19° S visible
28 Nov 2.9 00:14:17 10° S 00:15:54 13° SE 00:17:30 10° ESE visible
28 Nov 3.4 01:48:57 10° WSW 01:49:47 16° SW 01:49:47 16° SW visible
29 Nov 1.5 00:50:39 10° SW 00:53:33 33° SSE 00:53:55 32° SE visible
29 Nov 2.4 23:52:37 10° SSW 23:55:08 22° SSE 23:57:38 10° E visible
30 Nov 2.2 01:28:17 10° WSW 01:30:16 35° WSW 01:30:16 35° WSW visible
01 Dec 1.0 00:29:49 10° WSW 00:32:54 50° SSE 00:34:20 27° E visible
01 Dec 4.1 02:06:18 10° W 02:06:36 12° W 02:06:36 12° W visible
02 Dec 0.7 01:07:42 10° W 01:10:39 74° WSW 01:10:39 74° WSW visible
03 Dec 0.7 00:09:09 10° WSW 00:12:19 70° SSE 00:14:41 16° E visible
03 Dec 3.2 01:45:45 10° W 01:46:57 21° W 01:46:57 21° W visible
04 Dec 0.5 00:47:09 10° W 00:50:20 89° N 00:51:00 53° E visible
04 Dec 0.6 23:48:34 10° W 23:51:45 85° S 23:54:56 10° E visible
